Year,Month,Day,Hour,Minute,Value (Times are PST for temperature in C)
2014,06,30,00,00,15.80
2014,06,30,00,01,15.80
2014,06,30,00,02,15.80
2014,06,30,00,03,15.80
2014,06,30,00,04,15.90
2014,06,30,00,05,15.90
2014,06,30,00,06,15.80
2014,06,30,00,07,15.90
2014,06,30,00,08,15.90
2014,06,30,00,09,15.90
2014,06,30,00,10,15.90
2014,06,30,00,11,15.90
2014,06,30,00,12,15.90
2014,06,30,00,13,15.90
2014,06,30,00,14,15.90
2014,06,30,00,15,15.90
2014,06,30,00,16,15.90
2014,06,30,00,17,15.90
2014,06,30,00,18,15.90
2014,06,30,00,19,15.90
2014,06,30,00,20,15.90
2014,06,30,00,21,15.90
2014,06,30,00,22,15.90
2014,06,30,00,23,15.90
2014,06,30,00,24,15.80
2014,06,30,00,25,15.80
2014,06,30,00,26,15.80
2014,06,30,00,27,15.80
2014,06,30,00,28,15.80
2014,06,30,00,29,15.80
2014,06,30,00,30,15.80
2014,06,30,00,31,15.80
2014,06,30,00,32,15.80
2014,06,30,00,33,15.80
2014,06,30,00,34,15.80
2014,06,30,00,35,15.70
2014,06,30,00,36,15.70
2014,06,30,00,37,15.70
2014,06,30,00,38,15.70
2014,06,30,00,39,15.70
2014,06,30,00,40,15.70
2014,06,30,00,41,15.70
2014,06,30,00,42,15.70
2014,06,30,00,43,15.70
2014,06,30,00,44,15.70
2014,06,30,00,45,15.70
2014,06,30,00,46,15.70
2014,06,30,00,47,15.70
2014,06,30,00,48,15.70
2014,06,30,00,49,15.70
2014,06,30,00,50,15.70
2014,06,30,00,51,15.70
2014,06,30,00,52,15.70
2014,06,30,00,53,15.70
2014,06,30,00,54,15.70
2014,06,30,00,55,15.70
2014,06,30,00,56,15.70
2014,06,30,00,57,15.70
2014,06,30,00,58,15.70
2014,06,30,00,59,15.70
2014,06,30,01,00,15.70
2014,06,30,01,01,15.70
2014,06,30,01,02,15.70
2014,06,30,01,03,15.70
2014,06,30,01,04,15.70
2014,06,30,01,05,15.70
2014,06,30,01,06,15.70
2014,06,30,01,07,15.70
2014,06,30,01,08,15.70
2014,06,30,01,09,15.70
2014,06,30,01,10,15.70
2014,06,30,01,11,15.70
2014,06,30,01,12,15.70
2014,06,30,01,13,15.70
2014,06,30,01,14,15.70
2014,06,30,01,15,15.70
2014,06,30,01,16,15.70
2014,06,30,01,17,15.70
2014,06,30,01,18,15.70
2014,06,30,01,19,15.60
2014,06,30,01,20,15.60
2014,06,30,01,21,15.60
2014,06,30,01,22,15.60
2014,06,30,01,23,15.60
2014,06,30,01,24,15.60
2014,06,30,01,25,15.60
2014,06,30,01,26,15.60
2014,06,30,01,27,15.60
2014,06,30,01,28,15.60
2014,06,30,01,29,15.60
2014,06,30,01,30,15.60
2014,06,30,01,31,15.60
2014,06,30,01,32,15.60
2014,06,30,01,33,15.50
2014,06,30,01,34,15.50
2014,06,30,01,35,15.50
2014,06,30,01,36,15.50
2014,06,30,01,37,15.50
2014,06,30,01,38,15.50
2014,06,30,01,39,15.50
2014,06,30,01,40,15.40
2014,06,30,01,41,15.40
2014,06,30,01,42,15.40
2014,06,30,01,43,15.40
2014,06,30,01,44,15.40
2014,06,30,01,45,15.40
2014,06,30,01,46,15.40
2014,06,30,01,47,15.40
2014,06,30,01,48,15.40
2014,06,30,01,49,15.40
2014,06,30,01,50,15.40
2014,06,30,01,51,15.30
2014,06,30,01,52,15.30
2014,06,30,01,53,15.30
2014,06,30,01,54,15.30
2014,06,30,01,55,15.30
2014,06,30,01,56,15.30
2014,06,30,01,57,15.30
2014,06,30,01,58,15.20
2014,06,30,01,59,15.20
2014,06,30,02,00,15.20
2014,06,30,02,01,15.20
2014,06,30,02,02,15.20
2014,06,30,02,03,15.10
2014,06,30,02,04,15.10
2014,06,30,02,05,15.10
2014,06,30,02,06,15.10
2014,06,30,02,07,15.10
2014,06,30,02,08,15.10
2014,06,30,02,09,15.10
2014,06,30,02,10,15.10
2014,06,30,02,11,15.10
2014,06,30,02,12,15.10
2014,06,30,02,13,15.10
2014,06,30,02,14,15.10
2014,06,30,02,15,15.10
2014,06,30,02,16,15.10
2014,06,30,02,17,15.10
2014,06,30,02,18,15.10
2014,06,30,02,19,15.10
2014,06,30,02,20,15.10
2014,06,30,02,21,15.10
2014,06,30,02,22,15.10
2014,06,30,02,23,15.10
2014,06,30,02,24,15.10
2014,06,30,02,25,15.10
2014,06,30,02,26,15.10
2014,06,30,02,27,15.10
2014,06,30,02,28,15.10
2014,06,30,02,29,15.20
2014,06,30,02,30,15.20
2014,06,30,02,31,15.20
2014,06,30,02,32,15.10
2014,06,30,02,33,15.10
2014,06,30,02,34,15.10
2014,06,30,02,35,15.10
2014,06,30,02,36,15.10
2014,06,30,02,37,15.00
2014,06,30,02,38,15.00
2014,06,30,02,39,15.00
2014,06,30,02,40,14.90
2014,06,30,02,41,14.90
2014,06,30,02,42,14.90
2014,06,30,02,43,14.90
2014,06,30,02,44,14.90
2014,06,30,02,45,14.80
2014,06,30,02,46,14.80
2014,06,30,02,47,14.80
2014,06,30,02,48,14.80
2014,06,30,02,49,14.80
2014,06,30,02,50,14.80
2014,06,30,02,51,14.80
2014,06,30,02,52,14.80
2014,06,30,02,53,14.80
2014,06,30,02,54,14.80
2014,06,30,02,55,14.80
2014,06,30,02,56,14.80
2014,06,30,02,57,14.80
2014,06,30,02,58,14.80
2014,06,30,02,59,14.80
2014,06,30,03,00,14.80
2014,06,30,03,01,14.80
2014,06,30,03,02,14.70
2014,06,30,03,03,14.80
2014,06,30,03,04,14.80
2014,06,30,03,05,14.80
2014,06,30,03,06,14.80
2014,06,30,03,07,14.80
2014,06,30,03,08,14.80
2014,06,30,03,09,14.80
2014,06,30,03,10,14.80
2014,06,30,03,11,14.80
2014,06,30,03,12,14.80
2014,06,30,03,13,14.80
2014,06,30,03,14,14.80
2014,06,30,03,15,14.80
2014,06,30,03,16,14.80
2014,06,30,03,17,14.80
2014,06,30,03,18,14.80
2014,06,30,03,19,14.80
2014,06,30,03,20,14.80
2014,06,30,03,21,14.80
2014,06,30,03,22,14.90
2014,06,30,03,23,14.90
2014,06,30,03,24,14.90
2014,06,30,03,25,14.90
2014,06,30,03,26,14.90
2014,06,30,03,27,14.90
2014,06,30,03,28,14.90
2014,06,30,03,29,15.00
2014,06,30,03,30,15.00
2014,06,30,03,31,15.00
2014,06,30,03,32,15.00
2014,06,30,03,33,15.00
2014,06,30,03,34,15.00
2014,06,30,03,35,15.00
2014,06,30,03,36,15.00
2014,06,30,03,37,15.00
2014,06,30,03,38,15.00
2014,06,30,03,39,15.00
2014,06,30,03,40,15.00
2014,06,30,03,41,15.00
2014,06,30,03,42,14.90
2014,06,30,03,43,14.90
2014,06,30,03,44,14.90
2014,06,30,03,45,14.90
2014,06,30,03,46,14.90
2014,06,30,03,47,14.90
2014,06,30,03,48,14.90
2014,06,30,03,49,14.80
2014,06,30,03,50,14.80
2014,06,30,03,51,14.80
2014,06,30,03,52,14.80
2014,06,30,03,53,14.80
2014,06,30,03,54,14.80
2014,06,30,03,55,14.70
2014,06,30,03,56,14.70
2014,06,30,03,57,14.70
2014,06,30,03,58,14.70
2014,06,30,03,59,14.70
2014,06,30,04,00,14.70
2014,06,30,04,01,14.60
2014,06,30,04,02,14.60
2014,06,30,04,03,14.60
2014,06,30,04,04,14.60
2014,06,30,04,05,14.50
2014,06,30,04,06,14.50
2014,06,30,04,07,14.50
2014,06,30,04,08,14.50
2014,06,30,04,09,14.40
2014,06,30,04,10,14.40
2014,06,30,04,11,14.40
2014,06,30,04,12,14.40
2014,06,30,04,13,14.30
2014,06,30,04,14,14.30
2014,06,30,04,15,14.30
2014,06,30,04,16,14.30
2014,06,30,04,17,14.30
2014,06,30,04,18,14.30
2014,06,30,04,19,14.30
2014,06,30,04,20,14.30
2014,06,30,04,21,14.20
2014,06,30,04,22,14.20
2014,06,30,04,23,14.20
2014,06,30,04,24,14.20
2014,06,30,04,25,14.20
2014,06,30,04,26,14.20
2014,06,30,04,27,14.20
2014,06,30,04,28,14.20
2014,06,30,04,29,14.10
2014,06,30,04,30,14.10
2014,06,30,04,31,14.10
2014,06,30,04,32,14.10
2014,06,30,04,33,14.10
2014,06,30,04,34,14.10
2014,06,30,04,35,14.00
2014,06,30,04,36,14.00
2014,06,30,04,37,13.90
2014,06,30,04,38,13.90
2014,06,30,04,39,13.90
2014,06,30,04,40,13.90
2014,06,30,04,41,13.90
2014,06,30,04,42,13.80
2014,06,30,04,43,13.80
2014,06,30,04,44,13.80
2014,06,30,04,45,13.80
2014,06,30,04,46,13.70
2014,06,30,04,47,13.70
2014,06,30,04,48,13.70
2014,06,30,04,49,13.70
2014,06,30,04,50,13.60
2014,06,30,04,51,13.60
2014,06,30,04,52,13.60
2014,06,30,04,53,13.60
2014,06,30,04,54,13.50
2014,06,30,04,55,13.50
2014,06,30,04,56,13.40
2014,06,30,04,57,13.40
2014,06,30,04,58,13.40
2014,06,30,04,59,13.40
2014,06,30,05,00,13.30
2014,06,30,05,01,13.30
2014,06,30,05,02,13.30
2014,06,30,05,03,13.30
2014,06,30,05,04,13.30
2014,06,30,05,05,13.30
2014,06,30,05,06,13.20
2014,06,30,05,07,13.20
2014,06,30,05,08,13.20
2014,06,30,05,09,13.20
2014,06,30,05,10,13.20
2014,06,30,05,11,13.20
2014,06,30,05,12,13.20
2014,06,30,05,13,13.10
2014,06,30,05,14,13.10
2014,06,30,05,15,13.10
2014,06,30,05,16,13.10
2014,06,30,05,17,13.10
2014,06,30,05,18,13.00
2014,06,30,05,19,13.00
2014,06,30,05,20,13.00
2014,06,30,05,21,13.00
2014,06,30,05,22,13.00
2014,06,30,05,23,12.90
2014,06,30,05,24,12.90
2014,06,30,05,25,12.90
2014,06,30,05,26,12.90
2014,06,30,05,27,12.90
2014,06,30,05,28,12.90
2014,06,30,05,29,12.90
2014,06,30,05,30,12.80
2014,06,30,05,31,12.80
2014,06,30,05,32,12.80
2014,06,30,05,33,12.80
2014,06,30,05,34,12.80
2014,06,30,05,35,12.80
2014,06,30,05,36,12.80
2014,06,30,05,37,12.80
2014,06,30,05,38,12.70
2014,06,30,05,39,12.70
2014,06,30,05,40,12.70
2014,06,30,05,41,12.70
2014,06,30,05,42,12.70
2014,06,30,05,43,12.70
2014,06,30,05,44,12.70
2014,06,30,05,45,12.70
2014,06,30,05,46,12.70
2014,06,30,05,47,12.70
2014,06,30,05,48,12.80
2014,06,30,05,49,12.80
2014,06,30,05,50,12.80
2014,06,30,05,51,12.80
2014,06,30,05,52,12.80
2014,06,30,05,53,12.80
2014,06,30,05,54,12.80
2014,06,30,05,55,12.80
2014,06,30,05,56,12.80
2014,06,30,05,57,12.80
2014,06,30,05,58,12.80
2014,06,30,05,59,12.80
2014,06,30,06,00,12.80
2014,06,30,06,01,12.80
2014,06,30,06,02,12.80
2014,06,30,06,03,12.90
2014,06,30,06,04,12.90
2014,06,30,06,05,12.90
2014,06,30,06,06,12.90
2014,06,30,06,07,12.90
2014,06,30,06,08,12.90
2014,06,30,06,09,12.90
2014,06,30,06,10,12.90
2014,06,30,06,11,12.90
2014,06,30,06,12,12.90
2014,06,30,06,13,13.00
2014,06,30,06,14,13.00
2014,06,30,06,15,13.10
2014,06,30,06,16,13.10
2014,06,30,06,17,13.10
2014,06,30,06,18,13.10
2014,06,30,06,19,13.20
2014,06,30,06,20,13.20
2014,06,30,06,21,13.30
2014,06,30,06,22,13.30
2014,06,30,06,23,13.30
2014,06,30,06,24,13.30
2014,06,30,06,25,13.40
2014,06,30,06,26,13.40
2014,06,30,06,27,13.40
2014,06,30,06,28,13.50
2014,06,30,06,29,13.50
2014,06,30,06,30,13.50
2014,06,30,06,31,13.60
2014,06,30,06,32,13.60
2014,06,30,06,33,13.70
2014,06,30,06,34,13.70
2014,06,30,06,35,13.70
2014,06,30,06,36,13.80
2014,06,30,06,37,13.80
2014,06,30,06,38,13.80
2014,06,30,06,39,13.80
2014,06,30,06,40,13.90
2014,06,30,06,41,13.90
2014,06,30,06,42,13.90
2014,06,30,06,43,13.90
2014,06,30,06,44,13.90
2014,06,30,06,45,13.90
2014,06,30,06,46,13.90
2014,06,30,06,47,13.90
2014,06,30,06,48,13.90
2014,06,30,06,49,14.00
2014,06,30,06,50,14.00
2014,06,30,06,51,14.00
2014,06,30,06,52,14.00
2014,06,30,06,53,14.10
2014,06,30,06,54,14.10
2014,06,30,06,55,14.10
2014,06,30,06,56,14.10
2014,06,30,06,57,14.10
2014,06,30,06,58,14.20
2014,06,30,06,59,14.20
2014,06,30,07,00,14.30
2014,06,30,07,01,14.30
2014,06,30,07,02,14.30
2014,06,30,07,03,14.40
2014,06,30,07,04,14.40
2014,06,30,07,05,14.40
2014,06,30,07,06,14.50
2014,06,30,07,07,14.50
2014,06,30,07,08,14.60
2014,06,30,07,09,14.60
2014,06,30,07,10,14.70
2014,06,30,07,11,14.70
2014,06,30,07,12,14.80
2014,06,30,07,13,14.80
2014,06,30,07,14,14.90
2014,06,30,07,15,14.90
2014,06,30,07,16,15.00
2014,06,30,07,17,15.00
2014,06,30,07,18,15.10
2014,06,30,07,19,15.20
2014,06,30,07,20,15.20
2014,06,30,07,21,15.20
2014,06,30,07,22,15.30
2014,06,30,07,23,15.30
2014,06,30,07,24,15.30
2014,06,30,07,25,15.30
2014,06,30,07,26,15.30
2014,06,30,07,27,15.40
2014,06,30,07,28,15.40
2014,06,30,07,29,15.40
2014,06,30,07,30,15.50
2014,06,30,07,31,15.50
2014,06,30,07,32,15.50
2014,06,30,07,33,15.60
2014,06,30,07,34,15.60
2014,06,30,07,35,15.70
2014,06,30,07,36,15.70
2014,06,30,07,37,15.70
2014,06,30,07,38,15.70
2014,06,30,07,39,15.70
2014,06,30,07,40,15.70
2014,06,30,07,41,15.70
2014,06,30,07,42,15.70
2014,06,30,07,43,15.80
2014,06,30,07,44,15.80
2014,06,30,07,45,15.80
2014,06,30,07,46,15.80
2014,06,30,07,47,15.90
2014,06,30,07,48,15.90
2014,06,30,07,49,15.90
2014,06,30,07,50,16.00
2014,06,30,07,51,16.00
2014,06,30,07,52,16.10
2014,06,30,07,53,16.10
2014,06,30,07,54,16.20
2014,06,30,07,55,16.20
2014,06,30,07,56,16.20
2014,06,30,07,57,16.30
2014,06,30,07,58,16.30
2014,06,30,07,59,16.30
2014,06,30,08,00,16.30
2014,06,30,08,01,16.30
2014,06,30,08,02,16.30
2014,06,30,08,03,16.30
2014,06,30,08,04,16.30
2014,06,30,08,05,16.30
2014,06,30,08,06,16.30
2014,06,30,08,07,16.30
2014,06,30,08,08,16.20
2014,06,30,08,09,16.30
2014,06,30,08,10,16.30
2014,06,30,08,11,16.30
2014,06,30,08,12,16.30
2014,06,30,08,13,16.30
2014,06,30,08,14,16.30
2014,06,30,08,15,16.40
2014,06,30,08,16,16.40
2014,06,30,08,17,16.40
2014,06,30,08,18,16.50
2014,06,30,08,19,16.50
2014,06,30,08,20,16.50
2014,06,30,08,21,16.60
2014,06,30,08,22,16.50
2014,06,30,08,23,16.50
2014,06,30,08,24,16.40
2014,06,30,08,25,16.40
2014,06,30,08,26,16.50
2014,06,30,08,27,16.50
2014,06,30,08,28,16.50
2014,06,30,08,29,16.50
2014,06,30,08,30,16.50
2014,06,30,08,31,16.50
2014,06,30,08,32,16.50
2014,06,30,08,33,16.50
2014,06,30,08,34,16.60
2014,06,30,08,35,16.50
2014,06,30,08,36,16.50
2014,06,30,08,37,16.40
2014,06,30,08,38,16.40
2014,06,30,08,39,16.40
2014,06,30,08,40,16.40
2014,06,30,08,41,16.40
2014,06,30,08,42,16.50
2014,06,30,08,43,16.50
2014,06,30,08,44,16.60
2014,06,30,08,45,16.70
2014,06,30,08,46,16.70
2014,06,30,08,47,16.80
2014,06,30,08,48,16.80
2014,06,30,08,49,16.90
2014,06,30,08,50,17.00
2014,06,30,08,51,17.10
2014,06,30,08,52,17.10
2014,06,30,08,53,17.00
2014,06,30,08,54,16.90
2014,06,30,08,55,16.90
2014,06,30,08,56,16.90
2014,06,30,08,57,16.90
2014,06,30,08,58,17.00
2014,06,30,08,59,17.10
2014,06,30,09,00,17.20
2014,06,30,09,01,17.20
2014,06,30,09,02,17.30
2014,06,30,09,03,17.30
2014,06,30,09,04,17.40
2014,06,30,09,05,17.50
2014,06,30,09,06,17.50
2014,06,30,09,07,17.60
2014,06,30,09,08,17.60
2014,06,30,09,09,17.60
2014,06,30,09,10,17.70
2014,06,30,09,11,17.70
2014,06,30,09,12,17.60
2014,06,30,09,13,17.60
2014,06,30,09,14,17.60
2014,06,30,09,15,17.60
2014,06,30,09,16,17.60
2014,06,30,09,17,17.60
2014,06,30,09,18,17.70
2014,06,30,09,19,17.80
2014,06,30,09,20,17.90
2014,06,30,09,21,18.00
2014,06,30,09,22,18.10
2014,06,30,09,23,18.10
2014,06,30,09,24,18.30
2014,06,30,09,25,18.30
2014,06,30,09,26,18.40
2014,06,30,09,27,18.40
2014,06,30,09,28,18.40
2014,06,30,09,29,18.40
2014,06,30,09,30,18.40
2014,06,30,09,31,18.40
2014,06,30,09,32,18.40
2014,06,30,09,33,18.40
2014,06,30,09,34,18.40
2014,06,30,09,35,18.40
2014,06,30,09,36,18.30
2014,06,30,09,37,18.40
2014,06,30,09,38,18.40
2014,06,30,09,39,18.40
2014,06,30,09,40,18.40
2014,06,30,09,41,18.30
2014,06,30,09,42,18.30
2014,06,30,09,43,18.20
2014,06,30,09,44,18.20
2014,06,30,09,45,18.20
2014,06,30,09,46,18.20
2014,06,30,09,47,18.30
2014,06,30,09,48,18.30
2014,06,30,09,49,18.40
2014,06,30,09,50,18.40
2014,06,30,09,51,18.50
2014,06,30,09,52,18.50
2014,06,30,09,53,18.50
2014,06,30,09,54,18.50
2014,06,30,09,55,18.50
2014,06,30,09,56,18.60
2014,06,30,09,57,18.70
2014,06,30,09,58,18.80
2014,06,30,09,59,18.90
2014,06,30,10,00,19.00
2014,06,30,10,01,19.10
2014,06,30,10,02,19.10
2014,06,30,10,03,19.20
2014,06,30,10,04,19.20
2014,06,30,10,05,19.30
2014,06,30,10,06,19.30
2014,06,30,10,07,19.40
2014,06,30,10,08,19.40
2014,06,30,10,09,19.50
2014,06,30,10,10,19.50
2014,06,30,10,11,19.60
2014,06,30,10,12,19.60
2014,06,30,10,13,19.50
2014,06,30,10,14,19.50
2014,06,30,10,15,19.40
2014,06,30,10,16,19.40
2014,06,30,10,17,19.30
2014,06,30,10,18,19.30
2014,06,30,10,19,19.30
2014,06,30,10,20,19.30
2014,06,30,10,21,19.30
2014,06,30,10,22,19.30
2014,06,30,10,23,19.30
2014,06,30,10,24,19.30
2014,06,30,10,25,19.30
2014,06,30,10,26,19.30
2014,06,30,10,27,19.30
2014,06,30,10,28,19.30
2014,06,30,10,29,19.40
2014,06,30,10,30,19.40
2014,06,30,10,31,19.50
2014,06,30,10,32,19.50
2014,06,30,10,33,19.60
2014,06,30,10,34,19.70
2014,06,30,10,35,19.70
2014,06,30,10,36,19.70
2014,06,30,10,37,19.70
2014,06,30,10,38,19.70
2014,06,30,10,39,19.70
2014,06,30,10,40,19.70
2014,06,30,10,41,19.80
2014,06,30,10,42,19.90
2014,06,30,10,43,19.90
2014,06,30,10,44,19.90
2014,06,30,10,45,19.90
2014,06,30,10,46,19.90
2014,06,30,10,47,19.90
2014,06,30,10,48,19.90
2014,06,30,10,49,20.00
2014,06,30,10,50,20.00
2014,06,30,10,51,20.10
2014,06,30,10,52,20.20
2014,06,30,10,53,20.30
2014,06,30,10,54,20.40
2014,06,30,10,55,20.50
2014,06,30,10,56,20.60
2014,06,30,10,57,20.60
2014,06,30,10,58,20.60
2014,06,30,10,59,20.70
2014,06,30,11,00,20.70
2014,06,30,11,01,20.70
2014,06,30,11,02,20.70
2014,06,30,11,03,20.70
2014,06,30,11,04,20.70
2014,06,30,11,05,20.80
2014,06,30,11,06,20.80
2014,06,30,11,07,20.80
2014,06,30,11,08,20.80
2014,06,30,11,09,20.90
2014,06,30,11,10,21.00
2014,06,30,11,11,21.00
2014,06,30,11,12,21.00
2014,06,30,11,13,20.90
2014,06,30,11,14,20.80
2014,06,30,11,15,20.80
2014,06,30,11,16,20.80
2014,06,30,11,17,20.80
2014,06,30,11,18,20.80
2014,06,30,11,19,20.80
2014,06,30,11,20,20.90
2014,06,30,11,21,20.90
2014,06,30,11,22,20.80
2014,06,30,11,23,20.80
2014,06,30,11,24,20.80
2014,06,30,11,25,20.90
2014,06,30,11,26,21.00
2014,06,30,11,27,21.10
2014,06,30,11,28,21.10
2014,06,30,11,29,21.20
2014,06,30,11,30,21.20
2014,06,30,11,31,21.30
2014,06,30,11,32,21.40
2014,06,30,11,33,21.30
2014,06,30,11,34,21.20
2014,06,30,11,35,21.20
2014,06,30,11,36,21.10
2014,06,30,11,37,21.10
2014,06,30,11,38,21.10
2014,06,30,11,39,21.00
2014,06,30,11,40,21.00
2014,06,30,11,41,21.00
2014,06,30,11,42,21.00
2014,06,30,11,43,21.10
2014,06,30,11,44,21.10
2014,06,30,11,45,21.20
2014,06,30,11,46,21.30
2014,06,30,11,47,21.30
2014,06,30,11,48,21.30
2014,06,30,11,49,21.30
2014,06,30,11,50,21.40
2014,06,30,11,51,21.40
2014,06,30,11,52,21.40
2014,06,30,11,53,21.30
2014,06,30,11,54,21.30
2014,06,30,11,55,21.30
2014,06,30,11,56,21.30
2014,06,30,11,57,21.40
2014,06,30,11,58,21.40
2014,06,30,11,59,21.40
2014,06,30,12,00,21.40
2014,06,30,12,01,21.40
2014,06,30,12,02,21.40
2014,06,30,12,03,21.40
2014,06,30,12,04,21.40
2014,06,30,12,05,21.50
2014,06,30,12,06,21.60
2014,06,30,12,07,21.60
2014,06,30,12,08,21.70
2014,06,30,12,09,21.70
2014,06,30,12,10,21.70
2014,06,30,12,11,21.70
2014,06,30,12,12,21.70
2014,06,30,12,13,21.70
2014,06,30,12,14,21.70
2014,06,30,12,15,21.80
2014,06,30,12,16,21.80
2014,06,30,12,17,21.90
2014,06,30,12,18,21.90
2014,06,30,12,19,22.00
2014,06,30,12,20,22.00
2014,06,30,12,21,22.00
2014,06,30,12,22,22.10
2014,06,30,12,23,22.10
2014,06,30,12,24,21.90
2014,06,30,12,25,21.80
2014,06,30,12,26,21.60
2014,06,30,12,27,21.60
2014,06,30,12,28,21.60
2014,06,30,12,29,21.60
2014,06,30,12,30,21.70
2014,06,30,12,31,21.70
2014,06,30,12,32,21.70
2014,06,30,12,33,21.70
2014,06,30,12,34,21.70
2014,06,30,12,35,21.80
2014,06,30,12,36,21.80
2014,06,30,12,37,21.80
2014,06,30,12,38,21.70
2014,06,30,12,39,21.70
2014,06,30,12,40,21.70
2014,06,30,12,41,21.70
2014,06,30,12,42,21.70
2014,06,30,12,43,21.70
2014,06,30,12,44,21.70
2014,06,30,12,45,21.70
2014,06,30,12,46,21.80
2014,06,30,12,47,21.90
2014,06,30,12,48,21.90
2014,06,30,12,49,22.00
2014,06,30,12,50,22.00
2014,06,30,12,51,22.10
2014,06,30,12,52,22.10
2014,06,30,12,53,22.10
2014,06,30,12,54,22.10
2014,06,30,12,55,22.20
2014,06,30,12,56,22.20
2014,06,30,12,57,22.20
2014,06,30,12,58,22.20
2014,06,30,12,59,22.20
2014,06,30,13,00,22.20
2014,06,30,13,01,22.10
2014,06,30,13,02,22.00
2014,06,30,13,03,22.00
2014,06,30,13,04,22.00
2014,06,30,13,05,22.10
2014,06,30,13,06,22.10
2014,06,30,13,07,22.10
2014,06,30,13,08,22.20
2014,06,30,13,09,22.20
2014,06,30,13,10,22.20
2014,06,30,13,11,22.20
2014,06,30,13,12,22.20
2014,06,30,13,13,22.20
2014,06,30,13,14,22.30
2014,06,30,13,15,22.30
2014,06,30,13,16,22.30
2014,06,30,13,17,22.30
2014,06,30,13,18,22.30
2014,06,30,13,19,22.40
2014,06,30,13,20,22.40
2014,06,30,13,21,22.40
2014,06,30,13,22,22.40
2014,06,30,13,23,22.40
2014,06,30,13,24,22.40
2014,06,30,13,25,22.30
2014,06,30,13,26,22.30
2014,06,30,13,27,22.30
2014,06,30,13,28,22.30
2014,06,30,13,29,22.20
2014,06,30,13,30,22.20
2014,06,30,13,31,22.20
2014,06,30,13,32,22.20
2014,06,30,13,33,22.20
2014,06,30,13,34,22.20
2014,06,30,13,35,22.20
2014,06,30,13,36,22.20
2014,06,30,13,37,22.20
2014,06,30,13,38,22.20
2014,06,30,13,39,22.20
2014,06,30,13,40,22.20
2014,06,30,13,41,22.20
2014,06,30,13,42,22.20
2014,06,30,13,43,22.10
2014,06,30,13,44,22.10
2014,06,30,13,45,22.10
2014,06,30,13,46,22.10
2014,06,30,13,47,22.10
2014,06,30,13,48,22.10
2014,06,30,13,49,22.10
2014,06,30,13,50,22.10
2014,06,30,13,51,22.10
2014,06,30,13,52,22.10
2014,06,30,13,53,22.10
2014,06,30,13,54,22.20
2014,06,30,13,55,22.30
2014,06,30,13,56,22.30
2014,06,30,13,57,22.40
2014,06,30,13,58,22.50
2014,06,30,13,59,22.50
2014,06,30,14,00,22.60
2014,06,30,14,01,22.80
2014,06,30,14,02,22.90
2014,06,30,14,03,23.00
2014,06,30,14,04,23.00
2014,06,30,14,05,23.10
2014,06,30,14,06,23.20
2014,06,30,14,07,23.20
2014,06,30,14,08,23.20
2014,06,30,14,09,23.30
2014,06,30,14,10,23.30
2014,06,30,14,11,23.30
2014,06,30,14,12,23.30
2014,06,30,14,13,23.30
2014,06,30,14,14,23.40
2014,06,30,14,15,23.40
2014,06,30,14,16,23.50
2014,06,30,14,17,23.50
2014,06,30,14,18,23.50
2014,06,30,14,19,23.50
2014,06,30,14,20,23.50
2014,06,30,14,21,23.40
2014,06,30,14,22,23.30
2014,06,30,14,23,23.30
2014,06,30,14,24,23.30
2014,06,30,14,25,23.30
2014,06,30,14,26,23.30
2014,06,30,14,27,23.30
2014,06,30,14,28,23.30
2014,06,30,14,29,23.30
2014,06,30,14,30,23.30
2014,06,30,14,31,23.30
2014,06,30,14,32,23.30
2014,06,30,14,33,23.30
2014,06,30,14,34,23.40
2014,06,30,14,35,23.40
2014,06,30,14,36,23.40
2014,06,30,14,37,23.40
2014,06,30,14,38,23.30
2014,06,30,14,39,23.30
2014,06,30,14,40,23.30
2014,06,30,14,41,23.30
2014,06,30,14,42,23.30
2014,06,30,14,43,23.30
2014,06,30,14,44,23.30
2014,06,30,14,45,23.30
2014,06,30,14,46,23.30
2014,06,30,14,47,23.40
2014,06,30,14,48,23.40
2014,06,30,14,49,23.40
2014,06,30,14,50,23.40
2014,06,30,14,51,23.30
2014,06,30,14,52,23.40
2014,06,30,14,53,23.40
2014,06,30,14,54,23.50
2014,06,30,14,55,23.50
2014,06,30,14,56,23.60
2014,06,30,14,57,23.60
2014,06,30,14,58,23.60
2014,06,30,14,59,23.60
2014,06,30,15,00,23.70
2014,06,30,15,01,23.70
2014,06,30,15,02,23.70
2014,06,30,15,03,23.80
2014,06,30,15,04,23.80
2014,06,30,15,05,23.80
2014,06,30,15,06,23.90
2014,06,30,15,07,23.90
2014,06,30,15,08,24.00
2014,06,30,15,09,24.10
2014,06,30,15,10,24.20
2014,06,30,15,11,24.30
2014,06,30,15,12,24.40
2014,06,30,15,13,24.40
2014,06,30,15,14,24.40
2014,06,30,15,15,24.30
2014,06,30,15,16,24.30
2014,06,30,15,17,24.30
2014,06,30,15,18,24.40
2014,06,30,15,19,24.50
2014,06,30,15,20,24.60
2014,06,30,15,21,24.70
2014,06,30,15,22,24.80
2014,06,30,15,23,24.70
2014,06,30,15,24,24.70
2014,06,30,15,25,24.70
2014,06,30,15,26,24.70
2014,06,30,15,27,24.70
2014,06,30,15,28,24.80
2014,06,30,15,29,24.80
2014,06,30,15,30,24.80
2014,06,30,15,31,24.80
2014,06,30,15,32,24.80
2014,06,30,15,33,24.80
2014,06,30,15,34,24.80
2014,06,30,15,35,24.80
2014,06,30,15,36,24.80
2014,06,30,15,37,24.80
2014,06,30,15,38,24.80
2014,06,30,15,39,24.80
2014,06,30,15,40,24.80
2014,06,30,15,41,24.80
2014,06,30,15,42,24.80
2014,06,30,15,43,24.80
2014,06,30,15,44,24.80
2014,06,30,15,45,24.80
2014,06,30,15,46,24.80
2014,06,30,15,47,24.80
2014,06,30,15,48,24.70
2014,06,30,15,49,24.70
2014,06,30,15,50,24.80
2014,06,30,15,51,24.90
2014,06,30,15,52,25.00
2014,06,30,15,53,25.00
2014,06,30,15,54,25.00
2014,06,30,15,55,24.90
2014,06,30,15,56,24.90
2014,06,30,15,57,25.00
2014,06,30,15,58,25.00
2014,06,30,15,59,25.10
2014,06,30,16,00,25.20
2014,06,30,16,01,25.30
2014,06,30,16,02,25.50
2014,06,30,16,03,25.60
2014,06,30,16,04,25.60
2014,06,30,16,05,25.60
2014,06,30,16,06,25.60
2014,06,30,16,07,25.50
2014,06,30,16,08,25.40
2014,06,30,16,09,25.40
2014,06,30,16,10,25.30
2014,06,30,16,11,25.30
2014,06,30,16,12,25.20
2014,06,30,16,13,25.10
2014,06,30,16,14,25.10
2014,06,30,16,15,25.10
2014,06,30,16,16,25.10
2014,06,30,16,17,25.10
2014,06,30,16,18,25.10
2014,06,30,16,19,25.00
2014,06,30,16,20,24.90
2014,06,30,16,21,24.90
2014,06,30,16,22,25.00
2014,06,30,16,23,25.10
2014,06,30,16,24,25.20
2014,06,30,16,25,25.30
2014,06,30,16,26,25.30
2014,06,30,16,27,25.30
2014,06,30,16,28,25.30
2014,06,30,16,29,25.20
2014,06,30,16,30,25.20
2014,06,30,16,31,25.20
2014,06,30,16,32,25.10
2014,06,30,16,33,25.10
2014,06,30,16,34,25.00
2014,06,30,16,35,25.00
2014,06,30,16,36,25.00
2014,06,30,16,37,25.00
2014,06,30,16,38,25.10
2014,06,30,16,39,25.20
2014,06,30,16,40,25.30
2014,06,30,16,41,25.30
2014,06,30,16,42,25.40
2014,06,30,16,43,25.40
2014,06,30,16,44,25.50
2014,06,30,16,45,25.50
2014,06,30,16,46,25.50
2014,06,30,16,47,25.50
2014,06,30,16,48,25.50
2014,06,30,16,49,25.40
2014,06,30,16,50,25.40
2014,06,30,16,51,25.40
2014,06,30,16,52,25.40
2014,06,30,16,53,25.30
2014,06,30,16,54,25.20
2014,06,30,16,55,25.10
2014,06,30,16,56,25.10
2014,06,30,16,57,25.00
2014,06,30,16,58,25.00
2014,06,30,16,59,25.00
2014,06,30,17,00,25.00
2014,06,30,17,01,24.90
2014,06,30,17,02,24.90
2014,06,30,17,03,24.90
2014,06,30,17,04,24.90
2014,06,30,17,05,24.90
2014,06,30,17,06,25.00
2014,06,30,17,07,25.00
2014,06,30,17,08,25.10
2014,06,30,17,09,25.10
2014,06,30,17,10,25.20
2014,06,30,17,11,25.30
2014,06,30,17,12,25.30
2014,06,30,17,13,25.30
2014,06,30,17,14,25.40
2014,06,30,17,15,25.40
2014,06,30,17,16,25.40
2014,06,30,17,17,25.40
2014,06,30,17,18,25.40
2014,06,30,17,19,25.40